This is the latest recevied weather packets stored in our database for station/object KD9JJA. If no packets are shown the sender has not sent any weather packets the latest 10 day(s).
| Time | Temp. | Humidity | Pressure | Rain* | Wind** | Luminosity | Snow |
|---|---|---|---|---|---|---|---|
| 1777658959 | 12.78° C | 65% | 1017.7 hPa | 0 mm | - | 736 W/m² | - |
| 1777658655 | 12.78° C | 63% | 1017.6 hPa | 0 mm | - | 710 W/m² | - |
| 1777658352 | 12.78° C | 65% | 1017.8 hPa | 0 mm | - | 126 W/m² | - |
| 1777658049 | 12.22° C | 66% | 1017.6 hPa | 0 mm | - | 543 W/m² | - |
| 1777657746 | 12.22° C | 63% | 1017.7 hPa | 0 mm | - | 75 W/m² | - |
| 1777657443 | 12.78° C | 64% | 1017.7 hPa | 0 mm | - | 117 W/m² | - |
| 1777657141 | 12.22° C | 68% | 1017.8 hPa | 0 mm | - | 92 W/m² | - |
| 1777656838 | 12.22° C | 67% | 1017.8 hPa | 0 mm | - | 157 W/m² | - |
| 1777656533 | 12.78° C | 68% | 1017.7 hPa | 0 mm | - | 85 W/m² | - |
| 1777656229 | 12.78° C | 65% | 1017.8 hPa | 0 mm | - | 120 W/m² | - |
| 1777655924 | 12.22° C | 67% | 1017.8 hPa | 0 mm | - | 92 W/m² | - |
| 1777655622 | 12.22° C | 65% | 1017.6 hPa | 0 mm | - | 83 W/m² | - |
| 1777655318 | 12.22° C | 68% | 1018 hPa | 0 mm | - | 104 W/m² | - |
| 1777655015 | 12.22° C | 68% | 1017.7 hPa | 0 mm | - | 139 W/m² | - |
| 1777654713 | 12.22° C | 66% | 1017.8 hPa | 0 mm | - | 135 W/m² | - |
| 1777654411 | 11.67° C | 70% | 1017.8 hPa | 0 mm | - | 120 W/m² | - |
| 1777654108 | 11.67° C | 71% | 1017.7 hPa | 0 mm | - | 79 W/m² | - |
| 1777653806 | 12.22° C | 72% | 1017.3 hPa | 0 mm | - | 116 W/m² | - |
| 1777653501 | 11.67° C | 68% | 1017.5 hPa | 0 mm | - | 412 W/m² | - |
| 1777653198 | 12.22° C | 67% | 1017.5 hPa | 0 mm | - | 140 W/m² | - |
| 1777652895 | 11.67° C | 68% | 1017.6 hPa | 0 mm | - | 164 W/m² | - |
| 1777652592 | 11.67° C | 68% | 1017.3 hPa | 0 mm | - | 104 W/m² | - |
| 1777652289 | 11.67° C | 72% | 1017.5 hPa | 0 mm | - | 242 W/m² | - |
| 1777651985 | 11.67° C | 71% | 1017.3 hPa | 0 mm | - | 120 W/m² | - |
| 1777651682 | 11.11° C | 74% | 1017.3 hPa | 0 mm | - | 255 W/m² | - |
* Rain latest hour (hover to see other rain measurements)
** Current wind speed in m/s (hover to see current wind gust speed)